Location: Rotheul
(50.2849°N, 11.2349°E)
Time: 00:36:37
(UTC+02:00)

ISS - Pass Details

Date: 20 July 2018
Orbit: 402 x 408 km, 51.6° (Epoch: 19 July)

Event Time Altitude Azimuth Distance (km) Brightness Sun altitude
Rises 02:13:38 0° 279° (W) 2,328 0.0 -18.1°
Reaches altitude 10° 02:15:43 10° 282° (WNW) 1,468 -1.0 -18.0°
Maximum altitude 02:19:00 71° 7° (N) 434 -3.6 -17.9°
Drops below altitude 10° 02:22:18 10° 92° (E) 1,469 -0.9 -17.7°
Sets 02:24:23 0° 95° (E) 2,330 0.2 -17.7°
